Wind_Speed
28 28 25 22 16 13 15 20 23 28 33 36 39 34 26 23 24 25 27 28 26 23 23 23 24 24 23 20 18 17 15 16 17 18 18 17 17 17 16 15 16 16 19 26 33 36 37 36 35 34 33 31 30 29 29 29 28 27 28 29 30 30 29 29 28 28 27 27 26 26 26 25 25 24 24 24 24 24 24 24 24 24 24 23 22 21 20
24 30 26 19 17 16 15 18 21 24 26 28 32 35 31 23 20 23 27 26 26 27 26 25 26 25 24 22 19 17 16 15 16 17 18 17 16 17 17 17 17 17 16 17 23 31 38 39 37 36 34 32 32 32 32 30 29 29 29 30 31 31 31 30 29 28 27 27 27 26 26 26 26 26 25 25 25 25 25 25 25 25 25 25 24 23 22
17 25 27 18 16 19 19 23 28 28 27 27 27 30 31 28 26 28 28 26 27 28 24 23 26 26 25 24 21 18 17 16 16 16 16 16 15 15 15 16 17 18 18 17 17 23 34 41 39 37 36 35 34 34 34 33 32 31 31 31 32 32 32 32 31 29 28 28 28 27 27 27 27 27 27 26 26 26 26 26 26 26 26 26 25 25 24
15 18 25 21 18 20 24 29 31 29 29 30 30 30 32 33 33 32 30 28 31 30 22 18 22 25 26 26 25 22 20 19 18 16 16 16 15 14 14 15 16 17 17 17 15 15 25 37 40 38 37 37 37 37 35 34 35 34 34 34 34 33 33 32 31 31 30 29 28 28 28 27 27 27 27 27 27 27 27 27 27 27 27 27 26 26 26
16 12 17 19 19 21 26 30 30 28 30 32 33 35 37 37 36 35 34 33 32 32 27 21 21 25 27 28 28 27 24 22 21 20 19 18 17 15 14 15 16 17 15 16 16 14 15 25 33 37 39 39 38 37 37 36 37 37 36 36 35 34 33 33 32 32 31 30 28 27 27 27 27 27 27 27 28 28 27 27 27 28 28 27 27 28 27
18 13 15 19 21 23 27 30 30 29 31 31 32 34 36 36 36 36 37 37 34 31 29 26 24 26 28 29 29 29 28 27 25 24 23 22 20 18 17 17 18 18 18 17 18 17 14 17 23 29 37 43 42 39 38 39 39 39 39 38 36 33 33 34 33 32 32 30 28 27 27 27 27 27 27 28 29 29 28 28 28 28 28 28 28 28 29
18 16 18 21 24 27 30 31 29 29 31 31 32 32 30 30 33 35 34 35 34 31 28 26 25 26 28 29 29 30 30 29 29 28 27 26 24 23 22 21 21 21 21 19 18 18 18 18 18 20 28 40 46 43 40 40 41 41 41 40 36 33 33 34 34 32 32 30 29 29 29 29 28 28 29 29 30 30 29 29 30 30 29 30 29 30 31
21 21 21 22 25 29 32 33 31 30 32 32 33 33 30 28 30 33 32 31 32 30 29 28 26 24 26 28 29 30 31 31 30 30 30 29 28 27 26 25 25 24 23 21 20 19 19 20 19 18 20 28 38 39 38 39 42 45 44 41 38 37 36 36 35 33 33 32 32 32 31 31 31 31 31 31 31 31 30 30 30 31 31 32 31 31 33
25 23 22 25 27 29 32 34 34 33 32 33 34 34 32 31 30 30 30 31 32 33 33 32 30 27 26 28 30 31 32 32 31 32 32 31 31 31 30 29 28 26 25 23 22 21 22 22 22 22 21 22 26 30 31 32 37 43 47 44 41 40 40 38 37 37 36 36 35 34 34 34 35 34 33 32 32 31 31 30 29 28 29 30 30 31 33
27 24 20 22 26 30 33 34 33 35 34 33 34 34 32 32 32 31 30 31 34 38 38 34 31 30 29 30 31 33 34 33 32 32 32 32 32 33 34 33 31 29 28 27 26 24 24 24 25 25 24 23 24 26 28 27 29 35 43 45 43 42 42 40 39 40 40 39 38 37 36 35 35 35 34 33 32 32 30 29 27 26 26 28 28 28 30
28 26 21 20 21 27 32 33 32 34 36 35 34 34 33 32 32 32 29 27 29 36 39 36 33 31 32 33 32 33 34 34 34 34 34 34 34 34 35 35 35 33 31 31 31 29 27 27 28 27 27 26 26 24 23 22 22 25 33 41 44 44 44 44 43 43 44 43 42 40 38 34 33 33 33 32 32 32 30 29 28 28 27 27 26 27 26
26 26 24 23 24 25 26 29 30 32 34 35 35 35 36 35 33 33 33 30 29 31 34 35 34 32 33 34 32 31 33 33 34 35 36 36 36 36 36 37 37 37 35 34 35 34 32 30 30 30 29 30 30 27 22 19 18 18 22 28 35 40 42 45 46 47 46 46 45 44 42 38 34 33 33 32 32 32 30 29 28 28 27 27 26 26 25
24 26 26 27 30 29 25 24 28 30 31 33 35 37 39 37 35 36 37 36 34 33 32 34 34 34 35 34 31 29 31 33 34 36 38 39 40 40 39 38 38 38 36 35 37 37 36 35 34 33 32 31 31 32 30 27 25 24 22 20 22 27 32 36 42 47 49 48 47 45 43 40 36 34 34 34 33 32 31 30 29 29 28 28 27 26 27
23 24 25 27 29 32 29 25 24 27 31 34 37 38 37 35 34 36 37 37 37 35 33 33 33 33 33 32 30 29 31 33 35 37 39 40 41 41 39 39 40 38 35 35 36 36 37 37 36 35 36 35 34 36 35 34 32 31 29 25 23 23 24 24 28 35 41 42 40 38 36 36 35 34 34 34 33 33 32 32 32 31 30 30 29 28 28
21 19 21 25 27 29 30 28 26 26 30 34 36 37 36 36 35 34 33 34 34 34 34 33 32 32 32 32 31 31 32 33 34 37 38 39 39 40 40 40 40 39 38 37 36 35 36 36 35 34 35 35 36 36 36 35 35 34 33 32 31 30 28 24 22 23 25 28 29 29 30 31 32 33 33 33 33 32 32 32 32 32 32 32 31 30 30
20 19 20 23 26 25 25 26 27 27 29 31 33 34 34 35 36 35 33 32 31 32 33 33 32 33 34 33 33 33 33 33 34 35 36 36 37 38 39 39 37 37 38 39 37 36 37 38 38 38 37 35 34 34 33 33 34 34 33 33 33 32 31 29 27 25 25 26 27 27 29 30 31 32 33 34 33 33 32 32 33 33 33 33 32 32 32
21 22 21 21 21 19 19 21 24 26 28 30 31 32 31 31 33 34 35 34 33 33 34 33 32 34 35 34 32 33 34 33 34 35 35 36 36 37 39 39 39 38 39 40 38 38 39 39 39 40 40 38 37 36 35 35 35 33 32 31 32 33 34 34 34 34 34 34 33 31 30 31 31 31 33 33 33 33 34 34 34 35 34 34 33 33 33
21 21 21 21 20 17 17 19 21 23 25 28 30 30 30 29 31 32 34 34 33 33 34 34 33 34 35 35 34 34 34 34 35 35 36 36 37 37 38 39 39 40 41 42 41 42 42 42 42 42 42 41 40 39 39 39 37 33 30 29 30 32 35 35 35 36 36 36 35 33 32 31 30 30 32 32 32 33 34 34 35 36 36 36 35 35 34
21 21 22 22 22 20 19 19 20 22 23 25 28 30 29 29 30 32 33 34 34 34 35 34 32 31 33 35 37 37 37 36 37 37 37 37 37 38 39 39 39 40 41 42 42 42 43 43 43 43 43 42 41 40 39 38 36 32 29 28 28 29 31 32 33 33 34 34 33 33 32 32 32 32 33 33 33 34 34 35 35 36 36 37 37 37 37
21 23 23 23 23 22 20 20 21 22 23 24 25 27 29 30 30 32 33 33 33 34 35 35 34 33 33 35 37 38 38 39 39 39 39 39 38 37 38 39 41 42 42 43 43 43 43 43 43 42 42 41 41 41 40 38 36 33 31 30 29 29 30 32 32 32 33 33 33 33 33 33 33 33 33 34 34 35 35 36 37 37 37 38 38 39 39
20 22 22 23 24 24 23 23 23 23 24 24 24 25 26 28 30 31 33 34 33 34 35 35 35 36 37 37 38 38 39 40 41 42 42 41 39 38 38 38 39 41 43 44 45 44 44 44 44 44 44 43 42 41 40 39 37 35 34 32 31 31 31 32 32 32 32 33 33 33 33 33 32 32 34 35 35 35 36 37 38 38 39 39 40 40 40
19 19 19 20 23 25 25 26 25 25 25 25 25 25 26 26 28 30 31 33 34 35 36 36 36 37 39 40 40 40 40 40 41 43 44 43 42 41 41 40 39 41 43 43 43 44 44 43 43 44 45 45 44 42 41 40 39 38 37 36 34 34 33 33 34 34 34 34 34 35 35 34 34 35 36 36 36 37 38 39 39 39 40 40 41 41 41
17 17 17 19 20 22 23 24 25 26 27 27 27 27 27 27 28 28 30 32 33 34 36 37 38 39 41 41 42 43 42 41 41 43 44 45 44 43 44 44 41 41 44 46 44 43 44 43 42 43 44 45 45 45 44 43 43 42 42 41 39 38 36 36 36 36 36 36 37 37 37 36 37 38 39 39 39 39 40 41 41 41 41 42 42 42 42
17 17 17 18 19 20 20 21 23 25 26 28 29 29 30 30 30 30 30 31 32 33 35 36 37 39 41 43 44 45 45 44 44 45 46 46 45 45 46 47 42 38 41 47 48 47 46 45 43 43 44 45 46 46 46 46 46 45 45 45 45 44 42 41 40 39 39 39 40 40 40 40 40 40 41 41 41 41 42 43 43 43 43 44 44 44 44
19 18 18 19 20 20 20 21 22 24 25 26 27 28 30 31 32 32 33 33 34 34 35 36 36 37 39 42 44 46 46 46 47 49 49 48 48 47 47 48 45 39 37 41 45 47 48 48 47 46 46 45 46 46 47 47 47 47 47 47 48 48 47 46 45 44 43 43 43 43 43 43 43 44 44 44 44 44 44 45 45 46 47 47 47 48 48
20 20 20 21 21 21 22 23 23 24 25 25 26 27 28 29 30 32 33 34 35 36 37 37 38 38 39 41 42 44 46 46 46 48 50 50 50 51 50 51 51 47 40 35 34 36 40 44 47 49 50 50 49 48 48 48 48 48 48 48 48 48 48 48 48 48 47 47 46 46 47 47 48 48 48 49 48 48 49 49 49 50 51 51 52 53 53
21 21 21 22 22 23 24 24 24 24 25 26 27 28 29 30 30 31 32 33 34 35 36 38 39 40 41 42 43 44 45 45 45 46 48 49 49 51 52 53 55 56 52 45 39 36 36 37 39 42 46 49 51 52 52 51 50 51 51 51 50 50 49 49 49 49 49 49 49 49 49 50 51 52 52 52 53 53 53 54 55 55 56 56 57 57 57
19 19 20 21 22 22 23 24 24 25 26 27 28 29 29 30 31 32 33 34 34 35 36 37 38 40 41 42 44 45 46 47 47 46 47 48 48 49 50 51 53 57 59 58 56 54 51 47 44 42 41 42 44 48 51 53 54 54 55 54 54 54 53 53 52 52 51 51 51 51 51 52 52 53 53 54 55 55 56 56 57 58 58 58 58 59 59
17 17 18 19 20 20 21 22 23 24 25 26 28 29 30 31 32 33 34 35 35 37 38 38 39 40 41 42 44 45 46 48 48 48 47 48 49 50 50 50 50 52 55 58 61 63 63 62 60 57 53 49 46 44 45 46 48 50 51 52 53 53 53 53 54 54 54 54 54 55 55 55 55 55 56 56 56 57 57 57 58 59 59 58 58 59 60
17 18 18 19 19 20 21 22 22 23 24 25 27 28 29 30 32 33 34 35 36 37 38 39 40 41 42 43 44 45 46 48 49 49 49 49 50 51 52 52 51 51 52 54 57 60 62 62 62 62 61 59 55 51 48 46 45 44 45 46 46 47 48 48 50 51 51 52 53 54 54 55 55 56 57 57 58 58 58 59 59 59 59 59 59 59 59
20 20 20 21 21 22 23 23 24 24 25 26 26 27 29 30 31 32 33 34 35 37 38 39 41 42 43 44 45 46 47 48 49 50 50 51 51 52 53 54 54 53 52 52 54 56 58 58 58 58 59 58 56 55 54 53 51 50 49 48 47 47 47 47 48 49 50 50 51 52 53 53 54 54 54 55 55 56 57 57 58 58 59 60 59 59 59
23 23 23 23 24 25 25 25 26 26 26 27 27 28 29 30 31 32 33 34 35 36 38 39 40 42 43 44 45 47 48 49 50 51 52 52 52 53 54 55 55 55 55 55 54 56 58 59 58 57 57 56 55 54 53 53 53 53 54 55 55 55 54 54 54 54 54 53 54 54 55 55 56 56 56 55 55 54 54 54 55 56 56 57 58 58 57
26 26 26 26 27 27 27 28 28 28 28 28 29 29 30 31 31 33 34 35 36 37 38 39 40 41 42 44 45 47 48 49 51 52 53 53 53 54 55 56 55 54 54 53 50 49 54 58 59 58 56 56 55 54 53 52 52 52 53 55 56 57 58 58 59 58 57 57 57 57 57 57 58 58 58 58 58 58 57 57 57 56 56 56 56 55 53
27 28 29 29 29 29 29 29 29 29 29 29 30 30 30 31 32 33 34 35 37 38 39 39 40 41 42 43 45 46 48 49 51 53 53 54 54 55 56 57 57 56 56 55 53 52 56 60 61 60 58 57 55 55 55 54 54 54 54 54 54 55 55 56 57 58 58 58 58 58 58 59 59 59 59 59 59 59 59 60 60 60 59 60 59 57 56
26 28 29 31 31 32 32 31 31 30 30 30 31 31 31 31 32 33 34 35 36 38 39 40 41 42 43 44 45 46 47 49 51 53 53 54 54 55 56 57 58 59 59 59 59 61 63 65 64 63 62 61 60 58 57 56 56 57 56 56 55 55 54 54 54 56 57 57 58 58 59 59 59 59 60 60 60 60 60 60 61 61 61 62 62 61 60
26 27 29 31 32 33 34 34 33 32 32 32 32 32 32 33 33 33 34 35 36 37 38 40 41 42 43 44 45 47 48 49 51 53 53 53 54 54 55 57 58 59 60 60 61 62 64 65 64 63 63 63 63 61 59 58 57 57 57 57 57 57 56 55 54 55 56 57 58 59 60 60 60 60 60 60 60 60 60 60 61 61 61 61 62 62 61
26 27 29 31 33 34 35 35 34 33 33 33 33 33 33 33 33 34 34 35 36 37 38 40 41 42 44 45 46 47 49 51 52 53 54 55 55 55 55 56 57 57 59 60 61 62 64 64 62 62 63 63 62 63 62 61 59 58 59 60 60 59 58 58 57 56 56 57 57 59 60 60 60 61 61 60 61 61 61 60 61 61 61 61 61 61 60
27 28 29 30 32 34 34 34 34 33 33 33 33 33 33 33 34 34 35 36 37 38 39 41 42 43 45 46 47 48 50 51 53 54 55 57 57 58 58 58 57 56 58 60 60 61 63 63 63 64 64 63 62 62 62 60 58 58 60 62 62 61 61 60 60 59 59 59 58 58 59 60 60 60 60 60 61 61 61 61 61 61 61 61 61 60 60
29 29 30 31 31 32 33 33 33 33 33 33 33 33 33 34 35 36 37 37 39 40 41 42 43 44 44 44 45 45 46 47 48 50 51 54 55 56 58 58 56 55 57 59 60 60 61 62 62 64 65 64 64 65 64 61 60 61 62 62 62 62 62 62 61 61 61 61 60 59 59 60 60 60 60 61 61 61 62 62 62 62 62 62 61 61 61
30 31 32 32 31 31 31 31 31 31 31 32 32 33 34 35 36 37 38 39 40 41 41 41 41 41 40 40 41 41 42 43 43 44 46 48 50 51 52 53 53 54 54 55 56 58 59 60 60 62 64 64 65 65 64 63 63 64 65 64 64 64 64 63 63 62 62 62 61 61 60 60 60 60 60 61 61 62 62 62 63 63 64 63 63 63 62
32 32 33 33 31 29 28 28 29 30 30 31 32 33 35 36 37 38 39 40 40 39 38 37 36 36 37 38 39 40 41 42 43 43 44 45 45 47 48 49 50 52 52 52 53 54 55 54 55 57 59 61 62 64 63 62 62 64 64 63 62 62 62 62 62 62 62 63 63 62 61 61 60 59 58 58 59 60 61 61 61 62 63 64 64 64 64
32 32 32 31 29 28 27 27 28 29 30 31 33 34 35 36 37 38 38 37 35 34 33 33 34 35 36 38 39 40 41 41 41 41 41 40 41 42 43 44 46 49 50 50 51 51 51 51 51 52 53 54 56 57 58 59 60 62 63 61 60 60 59 59 59 59 60 61 62 63 63 63 62 61 59 58 57 57 56 56 56 57 58 60 61 62 63
32 32 30 29 27 26 26 27 28 29 31 32 33 35 36 36 37 36 34 32 30 30 31 32 33 34 36 37 38 38 38 38 38 38 38 38 40 41 42 43 46 48 50 51 52 52 52 51 51 50 50 50 51 52 53 55 56 58 59 60 60 61 60 60 59 58 58 58 60 62 63 64 64 64 64 63 62 60 58 56 54 53 53 54 55 56 57
32 31 29 27 26 26 26 27 28 30 31 33 34 34 35 36 35 33 30 29 28 29 30 31 33 34 36 37 38 37 36 36 37 37 38 40 41 43 44 46 48 50 52 53 54 55 55 54 53 52 50 49 49 50 51 51 52 53 54 56 57 58 59 59 59 58 58 58 58 60 60 61 61 62 63 63 63 63 63 62 61 60 58 57 57 56 56
30 29 28 27 26 26 27 27 28 30 31 32 33 34 34 34 32 29 27 27 27 28 30 31 32 34 36 36 35 34 34 35 36 38 39 42 44 46 47 47 48 50 51 52 52 53 55 55 55 54 52 50 50 51 50 50 50 50 50 50 51 52 53 54 54 55 56 56 57 58 59 59 59 60 60 60 61 61 62 63 64 65 65 65 65 64 63
29 29 28 27 26 26 27 27 29 30 31 32 33 34 33 31 29 27 26 26 27 28 29 30 32 34 34 33 31 30 31 33 34 36 38 40 41 42 42 41 42 45 47 47 47 48 48 48 50 51 50 48 48 49 48 48 49 49 48 47 47 46 47 48 49 50 51 52 53 54 55 56 56 57 58 58 59 59 59 59 60 61 63 64 64 65 66
29 29 28 27 26 26 26 28 29 30 31 32 33 32 31 29 27 26 26 26 27 28 29 30 31 31 30 28 27 27 28 30 31 32 33 33 32 33 33 32 34 38 41 43 44 44 43 43 44 45 45 44 45 46 46 46 47 47 47 46 44 43 43 43 44 44 46 48 49 50 52 53 54 55 55 55 56 56 57 56 56 57 58 59 60 61 62
29 28 27 26 25 25 26 28 29 30 30 31 31 30 28 27 26 26 26 26 27 28 28 29 29 29 27 26 25 26 27 29 29 28 27 26 26 27 28 29 30 32 34 35 36 36 36 36 37 39 41 43 43 44 44 45 46 47 47 46 45 44 43 42 40 41 43 45 46 47 48 50 51 52 53 53 53 53 54 54 54 54 55 56 56 57 58
29 27 26 25 25 25 27 28 29 29 30 30 30 28 26 25 25 26 26 26 27 27 28 28 27 27 26 25 26 26 27 28 28 27 27 27 26 24 24 25 25 26 26 27 27 26 26 27 28 31 36 38 38 37 38 40 41 42 43 44 44 45 44 43 42 42 43 43 43 44 45 47 48 49 50 51 51 51 52 52 53 53 54 55 55 55 56
27 25 24 24 24 25 27 27 28 28 29 29 28 26 25 25 25 25 26 26 26 27 27 27 26 26 25 25 26 26 27 27 27 26 26 25 24 23 22 22 21 20 20 20 19 18 18 19 21 25 30 35 35 34 35 37 38 39 40 41 42 43 43 43 41 40 39 39 39 40 41 43 45 46 48 49 49 50 51 52 52 53 53 54 55 55 56
24 23 23 24 24 25 26 27 27 27 28 28 26 25 24 24 24 25 25 25 25 26 26 26 26 25 24 24 25 25 26 25 25 23 23 22 21 21 21 20 19 18 17 16 15 15 16 16 17 20 26 32 35 36 38 39 40 40 40 41 42 42 42 43 43 42 40 39 39 39 38 39 40 42 44 46 47 48 49 50 51 51 52 52 53 53 54
23 23 23 24 24 25 26 26 26 27 27 27 25 24 24 24 24 24 24 24 25 26 26 26 25 24 23 23 23 24 24 24 24 24 23 22 21 19 18 18 18 18 17 15 15 16 18 18 18 19 22 26 31 34 37 39 40 41 41 41 41 42 42 43 44 45 45 44 44 43 41 40 38 38 39 42 44 45 46 46 47 47 48 49 49 50 50
Wind_Direction
218 216 218 221 209 201 212 217 221 222 221 222 219 216 220 224 220 221 224 225 227 227 225 225 225 222 220 224 228 230 230 228 230 235 237 238 239 238 237 235 234 235 234 232 231 230 230 229 228 229 228 228 229 231 234 236 237 236 236 236 236 235 233 232 231 231 232 233 234 236 238 239 240 241 242 244 247 248 249 249 249 250 252 252 252 252 253
218 216 219 226 218 204 201 208 216 217 219 225 224 223 226 229 227 227 225 223 226 230 230 226 224 220 213 213 222 228 231 230 229 232 235 236 236 238 241 240 239 240 240 239 238 235 233 231 229 228 229 229 230 231 233 235 237 237 237 238 237 236 235 234 233 233 233 234 235 237 238 239 241 242 242 243 245 248 251 251 252 254 255 257 257 256 255
214 216 218 224 220 210 208 214 217 213 212 217 220 222 224 226 228 229 228 226 224 227 228 221 219 219 213 211 217 222 228 233 233 233 236 238 236 237 240 241 240 242 243 247 251 241 232 231 229 227 228 229 230 232 233 233 235 236 237 238 238 237 235 234 234 233 233 234 235 237 238 240 241 243 244 245 246 248 250 252 253 254 256 257 259 260 259
214 218 218 222 221 214 216 223 223 219 217 218 221 222 221 222 224 225 227 227 223 223 227 224 220 218 215 214 218 219 223 230 235 238 241 242 239 238 241 243 244 247 247 251 262 253 231 228 228 227 228 229 229 231 232 233 234 235 236 237 236 236 235 233 233 233 232 233 234 236 238 240 241 243 245 246 247 248 249 251 253 254 255 257 258 260 261
213 212 210 217 222 220 223 227 225 221 219 219 221 222 222 224 225 225 225 227 227 228 232 234 229 223 218 218 220 222 223 226 231 237 241 243 243 241 242 245 244 246 247 246 253 254 233 225 228 230 231 231 231 231 232 233 235 235 235 236 236 235 235 234 232 232 232 232 232 236 240 241 242 244 245 246 247 248 249 250 252 253 255 256 257 258 259
204 203 198 205 214 219 225 227 225 223 220 217 217 219 220 221 223 225 226 227 229 233 234 236 237 231 224 221 222 224 225 226 228 232 236 241 244 243 242 243 243 243 244 242 244 247 241 233 235 238 236 233 231 231 232 233 235 236 236 237 237 236 237 236 234 232 231 230 231 235 239 240 241 243 245 247 248 249 249 250 251 252 254 255 256 258 258
205 209 202 201 211 218 222 223 222 222 221 217 216 219 219 219 220 222 224 225 228 231 232 229 229 226 222 221 223 225 227 228 229 231 233 237 242 244 243 243 243 244 244 243 242 244 247 248 251 256 247 233 227 229 233 233 234 236 236 237 237 236 237 238 237 235 231 229 231 235 238 240 242 245 247 248 249 250 250 251 252 252 252 253 254 256 257
212 215 207 204 213 219 220 222 221 221 223 223 224 226 228 226 223 222 223 223 224 226 227 226 224 222 221 223 225 226 227 229 231 232 233 235 238 242 245 246 246 247 248 248 246 245 248 250 249 257 255 236 227 232 240 241 240 237 235 234 234 234 235 235 235 235 232 230 232 235 237 242 245 246 247 248 248 248 249 251 253 253 252 252 253 255 258
214 216 213 213 217 217 220 222 220 219 222 226 228 231 231 231 230 230 230 231 230 230 234 237 236 233 229 228 229 229 229 228 231 233 234 235 237 240 243 246 248 249 249 250 249 249 250 251 248 247 249 244 238 240 244 248 247 241 234 231 231 233 234 233 234 235 234 234 234 235 237 243 246 246 246 247 247 248 249 250 252 253 251 252 254 258 261
216 217 219 219 220 221 223 224 223 221 220 221 226 229 229 230 232 235 237 241 240 238 239 243 244 239 234 232 232 233 233 231 231 234 235 236 237 239 241 244 247 248 249 249 249 250 251 252 252 249 247 249 251 246 241 246 253 246 235 230 231 233 233 233 235 237 236 236 236 238 240 242 243 244 245 246 247 247 247 247 249 249 250 252 255 258 263
218 219 223 224 224 225 224 222 223 222 218 216 221 226 227 227 229 231 233 238 243 242 242 245 247 245 241 236 234 235 236 234 233 235 236 237 238 240 241 243 244 246 248 248 249 250 250 250 251 251 248 247 250 246 240 244 253 249 238 234 235 237 236 234 235 237 238 237 236 239 242 240 239 241 243 243 244 244 244 245 246 247 248 250 253 256 261
220 221 224 226 227 226 222 219 220 220 217 218 222 226 228 228 228 231 233 235 242 247 249 249 248 247 245 241 238 238 239 238 237 237 237 238 239 241 241 243 244 244 245 248 249 251 251 249 250 252 251 252 254 256 254 251 250 249 245 239 238 239 238 236 236 236 236 235 235 239 242 239 237 239 239 238 238 239 240 241 243 244 244 245 249 253 258
222 223 225 228 229 228 222 218 219 218 217 219 220 225 230 231 231 234 237 239 241 246 252 253 251 249 249 247 245 243 241 240 240 238 237 237 238 240 242 244 245 245 246 248 250 252 254 254 253 253 254 254 256 258 260 261 257 256 258 256 251 245 238 236 239 240 237 234 236 241 240 235 232 232 233 233 234 235 237 239 241 244 245 247 249 253 256
225 227 229 232 234 232 227 222 219 218 217 218 221 225 230 231 231 233 236 239 241 243 248 251 250 249 249 249 248 246 244 242 242 242 241 239 239 240 242 244 246 245 245 247 248 248 252 256 258 256 255 254 256 259 263 266 266 264 263 262 262 262 252 240 239 240 236 233 236 238 234 229 227 227 228 230 232 234 237 241 243 245 247 249 251 253 255
224 227 230 233 236 236 233 229 226 224 222 222 225 229 232 232 232 233 234 238 240 240 242 247 249 249 248 246 244 245 245 244 243 241 240 239 239 239 239 241 244 243 242 245 247 246 245 249 252 254 254 253 256 259 262 264 266 268 268 265 265 268 264 251 240 236 232 230 233 234 232 230 229 228 228 230 232 235 239 242 245 246 247 249 251 253 255
223 226 229 232 235 237 236 234 232 232 231 230 231 233 235 236 236 235 235 236 237 237 239 243 247 247 244 240 238 240 243 243 242 240 238 236 236 237 237 238 239 241 241 242 243 244 243 244 245 249 251 252 254 257 259 261 263 263 264 264 263 262 259 254 250 250 246 243 244 244 242 240 238 235 234 234 234 236 239 243 246 248 249 251 253 254 256
233 232 233 236 238 237 236 235 234 233 234 235 236 237 237 238 239 238 238 238 238 238 240 241 241 241 242 242 240 240 241 242 242 241 240 237 238 240 242 242 241 242 244 245 244 244 244 245 246 247 249 251 253 255 256 260 262 261 258 256 254 253 253 255 257 257 255 253 253 251 246 244 243 242 240 238 237 239 241 244 248 250 252 254 255 257 258
238 239 239 239 240 238 235 234 234 235 235 235 236 238 238 237 238 240 242 242 242 242 242 243 243 243 245 248 248 248 247 246 245 243 243 242 242 244 245 246 245 244 245 247 248 247 247 247 247 247 248 249 250 251 253 256 259 258 254 249 245 245 248 251 251 251 250 249 249 247 243 240 239 241 241 242 242 243 245 247 249 251 254 256 257 258 259
240 242 242 241 241 240 237 234 234 235 236 235 235 235 236 235 234 237 240 243 245 245 245 245 245 245 246 247 248 249 250 250 248 247 247 247 247 247 246 246 247 246 245 245 247 248 248 249 249 249 249 249 248 248 250 252 253 252 248 244 241 241 243 244 244 245 245 243 241 240 238 236 235 238 241 242 244 245 247 249 250 251 252 254 256 257 258
242 241 242 243 243 242 239 236 235 235 236 236 237 236 237 236 235 235 236 239 242 245 246 245 244 245 246 248 248 248 248 248 247 247 247 248 248 249 249 249 248 248 248 246 246 247 248 249 250 250 250 250 248 246 246 246 246 244 242 242 242 242 243 244 245 245 244 242 240 238 236 235 236 239 242 244 246 248 249 249 250 250 251 252 253 254 255
243 241 241 241 242 243 241 238 237 237 236 236 237 238 239 239 239 238 238 238 239 242 244 245 244 244 245 247 249 251 250 248 246 245 247 248 247 248 252 253 251 249 248 247 246 246 247 248 249 249 250 250 247 245 242 241 241 241 240 241 243 243 244 246 248 248 248 248 247 245 242 241 242 245 247 248 249 250 250 250 250 250 250 250 251 252 252
243 244 244 242 241 242 242 241 240 240 240 240 239 240 240 240 240 241 241 241 241 242 243 245 246 245 244 245 246 249 250 250 248 246 247 249 249 249 252 254 253 251 250 248 246 246 247 248 248 248 248 247 244 242 240 239 239 240 242 243 244 244 244 246 248 250 251 251 252 252 251 249 250 252 252 252 253 253 253 252 251 251 251 251 251 252 252
251 250 248 246 244 243 243 243 243 243 243 243 243 242 242 241 240 241 242 243 244 244 244 245 245 246 246 245 245 247 249 250 250 250 249 250 250 252 253 253 254 256 253 249 247 247 247 248 248 246 245 244 243 242 242 241 240 241 242 243 245 245 245 245 245 246 248 249 251 252 252 252 252 253 254 254 254 254 255 254 254 254 253 254 254 254 254
255 253 250 249 248 246 244 243 244 244 245 245 245 245 244 244 243 242 242 243 244 245 245 246 246 246 247 247 246 247 247 248 250 251 251 250 250 252 253 253 256 261 256 249 246 245 244 244 245 244 243 242 242 243 244 244 244 244 244 245 246 246 247 246 245 244 244 246 248 250 251 252 252 253 254 255 254 254 255 256 257 257 256 256 257 257 257
256 255 253 252 251 250 248 245 244 244 244 245 246 247 247 247 246 245 244 244 244 245 246 246 247 247 248 248 248 248 248 248 250 251 253 252 250 250 251 251 253 258 256 247 243 244 244 244 244 244 243 243 242 242 244 245 246 247 247 247 248 248 248 248 248 247 246 245 246 247 249 250 251 253 254 255 255 256 256 256 257 258 259 259 260 260 260
258 257 255 254 253 252 251 249 247 247 247 247 247 247 248 248 249 248 248 247 246 246 246 247 247 248 248 249 250 251 251 251 251 252 254 255 253 252 251 248 248 251 251 242 236 239 241 240 241 243 244 244 244 243 244 245 247 247 248 248 248 248 248 247 247 247 247 247 248 248 248 249 250 251 252 253 255 256 257 257 258 259 260 261 262 262 262
260 260 259 257 256 255 255 254 253 252 251 250 249 249 249 249 250 250 250 250 249 248 248 248 248 248 249 249 250 251 252 252 253 254 254 255 255 255 254 251 249 249 249 245 241 240 238 235 236 239 241 242 243 243 244 244 245 246 247 247 247 248 248 248 247 247 246 247 248 249 250 250 250 250 251 252 253 254 255 256 258 258 259 260 261 262 262
261 261 262 262 262 261 260 259 258 256 255 254 254 253 253 252 252 251 252 252 252 251 251 250 249 249 249 250 250 252 252 253 254 255 255 255 256 256 256 255 253 252 251 251 250 251 250 249 248 248 247 244 242 242 243 244 245 246 246 248 249 250 250 251 251 250 250 249 249 250 251 251 251 252 252 253 253 254 254 255 256 257 259 260 261 262 263
263 263 263 263 263 263 263 262 261 260 259 258 258 257 257 256 255 255 255 254 254 254 254 254 253 252 252 251 251 251 252 253 254 256 256 257 257 257 258 258 256 255 254 254 254 256 257 258 258 258 258 256 252 248 245 245 246 247 248 249 251 252 254 255 255 255 255 255 254 254 254 254 254 254 254 255 255 256 257 257 258 258 259 260 262 263 264
265 264 263 262 262 262 262 261 261 261 260 260 260 260 260 259 259 258 257 257 257 257 256 256 256 256 256 255 254 254 254 254 254 255 256 257 258 258 259 259 260 259 257 257 258 259 261 262 262 262 262 262 261 257 254 251 248 247 246 247 249 251 253 255 257 258 258 259 259 258 258 258 257 257 257 257 257 258 258 259 260 260 260 261 262 263 264
268 267 266 266 265 264 263 262 262 262 261 261 262 262 262 263 262 262 261 259 259 259 258 257 257 257 257 258 258 258 257 257 257 257 257 257 258 258 259 260 261 261 260 259 259 261 262 263 265 265 265 265 264 262 259 257 255 252 250 249 249 250 252 255 257 259 260 261 262 262 262 261 261 261 261 261 260 260 261 261 262 262 262 263 264 264 264
267 266 266 266 266 266 266 265 264 264 263 263 263 263 264 264 264 264 263 263 262 261 261 260 259 258 258 258 258 258 259 259 259 259 259 259 259 259 260 260 261 262 263 263 263 263 264 264 264 264 263 264 265 264 263 261 259 257 255 253 253 253 255 256 258 260 261 261 262 262 263 263 263 263 264 264 264 264 264 264 264 264 264 264 265 265 265
264 263 262 263 263 263 264 265 265 265 265 264 264 264 264 265 265 266 266 265 264 264 263 263 262 261 260 259 259 258 258 259 259 259 259 260 260 260 260 261 261 261 263 265 266 266 266 265 264 263 263 263 263 263 263 262 261 260 258 257 256 256 256 257 259 260 260 260 261 261 261 262 263 263 264 264 264 264 265 265 265 265 265 265 265 265 265
263 262 261 261 261 261 262 263 264 265 265 265 265 265 265 266 266 267 267 268 267 266 265 264 264 263 262 261 261 260 259 259 259 259 259 259 259 260 260 261 261 260 259 259 259 259 260 262 264 265 265 264 263 262 262 261 261 260 259 259 258 258 258 258 258 259 259 259 259 259 260 261 261 262 263 263 263 263 264 264 264 264 264 264 265 265 265
267 265 263 261 260 260 261 261 262 263 264 265 265 266 267 267 268 269 269 270 270 270 269 268 266 265 264 264 263 262 262 261 261 260 260 259 259 260 260 260 260 260 260 259 258 257 258 260 264 266 267 267 266 265 263 262 261 260 259 258 258 258 257 257 257 257 257 257 257 258 258 259 260 260 261 261 262 262 262 263 263 263 263 264 264 264 264
275 272 268 265 262 261 260 261 262 263 264 265 266 268 269 270 270 271 272 272 272 272 271 270 269 268 266 266 265 265 264 263 263 262 262 261 260 260 260 259 259 259 260 260 260 259 259 260 263 265 266 266 266 265 264 263 261 261 260 259 258 257 257 257 256 256 256 256 256 256 256 257 257 258 259 260 261 261 262 262 262 263 263 263 264 264 263
280 278 275 271 267 264 262 262 263 264 266 267 268 269 270 272 273 275 276 276 275 275 274 272 271 270 268 267 266 266 265 265 264 263 263 262 261 260 259 259 259 259 259 259 259 259 260 260 260 260 261 263 264 264 264 263 263 263 262 260 259 258 258 257 256 256 256 256 256 256 256 256 257 258 259 259 260 261 261 261 262 262 263 263 263 264 264
286 284 281 277 272 269 266 264 265 266 267 269 270 272 274 276 279 280 281 281 279 278 276 275 274 272 271 270 268 267 266 265 264 263 263 262 261 260 260 260 259 258 258 258 258 258 259 259 259 258 258 259 260 260 260 261 261 262 261 260 260 259 259 257 256 256 256 256 256 257 257 257 258 258 259 259 260 260 261 261 261 262 262 263 263 263 264
293 292 289 285 278 272 268 266 266 267 268 271 273 276 280 282 284 285 284 283 282 281 280 279 277 276 274 273 271 269 268 267 266 265 265 264 263 262 261 261 261 260 259 258 258 258 258 258 258 258 258 257 256 256 257 257 257 257 258 259 260 260 259 259 258 257 257 257 257 257 258 259 259 259 259 259 260 260 260 261 261 261 262 262 263 263 263
298 297 295 290 283 276 270 268 268 270 272 276 279 282 285 287 287 287 286 285 284 283 282 281 280 279 278 276 275 273 272 270 269 268 267 267 266 266 264 263 263 262 260 260 260 260 259 259 258 258 257 257 257 257 257 257 256 256 257 259 259 259 259 259 259 259 259 259 258 258 259 260 260 260 260 260 260 260 260 260 260 261 261 261 261 262 262
301 300 297 292 286 278 273 272 273 275 278 281 284 287 289 289 288 287 287 286 286 285 285 284 283 282 282 281 279 277 275 272 270 268 267 267 267 268 267 267 267 265 263 262 262 262 261 260 260 259 259 258 258 258 258 257 257 257 257 258 259 260 261 261 260 260 259 259 259 259 259 259 260 260 260 260 260 260 259 259 259 259 259 259 260 260 260
303 302 298 292 286 280 277 277 278 280 283 286 288 290 289 289 288 288 288 288 287 286 286 286 286 286 286 285 283 281 277 274 270 268 267 266 266 267 268 269 270 270 269 267 266 265 264 263 262 262 261 260 259 259 258 257 257 256 256 256 257 258 259 260 260 259 258 258 258 258 258 258 258 259 259 259 259 259 259 258 258 258 258 258 259 259 259
305 303 298 291 285 281 280 281 282 284 287 289 290 289 289 289 289 289 289 287 285 285 286 288 289 290 290 289 287 282 277 273 270 269 268 268 268 269 270 270 271 271 271 269 268 266 265 264 263 263 262 262 261 260 259 258 257 257 257 256 255 255 255 257 258 259 258 258 258 258 258 259 259 259 259 260 261 261 260 259 260 260 260 260 260 260 259
305 304 297 289 284 282 281 282 284 287 289 290 290 290 290 291 290 289 286 284 283 285 288 291 293 295 295 292 287 280 275 272 271 271 271 271 271 272 272 272 273 273 271 269 266 265 264 262 262 262 263 263 262 261 260 260 259 258 258 257 257 257 256 256 257 258 258 258 258 259 260 260 261 261 262 262 263 263 262 262 262 263 263 263 263 263 262
304 304 298 289 284 283 283 284 287 290 291 291 291 291 292 291 289 285 283 282 284 288 292 295 297 299 297 292 285 278 275 274 274 275 276 277 277 276 274 273 272 271 269 266 264 263 262 261 260 260 260 260 261 261 262 262 262 261 260 260 259 259 258 258 257 258 258 258 259 259 260 261 262 262 263 263 264 265 264 264 264 265 265 266 266 266 266
301 302 298 289 284 283 285 288 291 293 293 292 293 293 293 290 286 283 282 283 286 290 294 296 299 301 298 291 283 278 276 277 279 281 283 282 281 279 276 271 266 263 264 264 264 263 262 261 259 256 255 255 258 260 261 261 260 261 261 260 260 260 260 260 259 258 257 257 258 259 259 260 261 262 262 263 264 265 266 266 266 266 267 267 267 267 268
297 300 297 290 285 285 288 291 294 295 294 294 295 294 292 287 283 282 282 283 287 291 294 297 301 302 297 287 280 278 278 280 284 287 289 290 289 286 283 277 269 265 266 268 269 268 267 265 260 254 248 246 248 252 253 254 255 257 258 260 262 262 261 260 259 258 257 257 258 259 260 260 260 260 262 263 264 265 266 266 266 266 266 266 267 267 267
298 299 296 290 287 288 292 294 296 296 296 296 296 294 290 285 282 281 282 284 288 292 295 297 301 302 295 284 278 278 280 283 287 291 295 298 299 296 291 285 279 275 273 272 271 270 268 264 257 250 243 239 240 244 248 251 254 256 257 259 260 260 259 260 260 260 260 259 259 259 259 259 260 260 261 261 262 263 264 265 265 265 265 265 265 265 265
299 299 294 289 288 291 294 296 297 297 298 299 297 293 288 284 282 282 283 285 288 292 295 297 301 302 294 284 278 279 280 283 286 291 295 297 298 296 291 284 281 280 279 275 272 269 266 261 254 246 238 233 233 239 245 249 251 252 253 253 254 255 257 259 261 261 261 262 261 261 260 260 259 260 260 261 261 261 262 263 263 263 264 264 264 264 264
298 296 291 289 290 293 296 298 299 299 301 301 298 292 287 284 283 284 285 286 289 293 296 298 300 301 296 286 279 278 280 282 285 289 292 294 295 295 292 285 279 279 283 280 272 265 262 258 252 241 232 226 226 232 238 240 241 244 246 249 251 253 255 256 258 259 261 261 261 261 262 262 261 260 260 261 261 262 262 262 262 262 262 263 264 264 265
295 292 289 290 292 295 298 300 301 301 303 302 298 291 285 284 284 286 288 288 290 294 297 298 297 298 297 291 284 280 281 282 284 287 291 292 293 294 293 285 277 276 280 279 267 258 255 253 248 238 230 226 227 232 236 239 242 245 248 250 252 253 254 254 255 257 258 260 261 262 262 263 264 264 263 262 262 263 263 264 264 264 264 265 266 266 267
291 290 289 290 293 297 301 302 302 303 304 303 298 290 285 283 284 287 289 290 292 295 297 297 295 294 294 293 290 285 282 282 283 286 289 290 291 292 294 289 280 274 274 273 265 257 252 249 245 241 237 234 234 237 240 242 244 247 250 251 253 254 254 256 257 259 261 263 266 268 269 269 270 270 267 265 263 263 264 265 265 266 266 267 268 268 268
Height
5829 5831 5833 5834 5838 5843 5847 5850 5851 5851 5853 5854 5856 5859 5860 5860 5862 5864 5864 5866 5868 5869 5870 5871 5872 5873 5875 5877 5878 5879 5881 5882 5883 5884 5886 5888 5890 5891 5893 5894 5896 5897 5898 5900 5901 5903 5905 5907 5909 5911 5913 5915 5917 5919 5920 5923 5925 5927 5929 5930 5931 5932 5934 5935 5936 5937 5939 5941 5942 5944 5945 5946 5947 5948 5949 5950 5951 5952 5953 5954 5955 5955 5956 5957 5958 5959 5959
5827 5829 5831 5834 5837 5841 5844 5847 5847 5848 5851 5854 5856 5858 5859 5860 5862 5862 5862 5864 5866 5866 5868 5869 5870 5872 5873 5875 5876 5878 5879 5880 5881 5883 5884 5886 5888 5889 5890 5892 5893 5894 5896 5897 5898 5900 5902 5904 5906 5908 5911 5912 5914 5916 5917 5920 5922 5925 5926 5927 5928 5930 5931 5932 5934 5935 5936 5938 5939 5941 5943 5944 5945 5946 5947 5948 5949 5950 5951 5952 5952 5953 5954 5954 5955 5956 5957
5827 5828 5830 5833 5836 5838 5840 5840 5841 5843 5847 5849 5852 5854 5856 5858 5859 5858 5860 5863 5864 5864 5866 5868 5867 5868 5871 5873 5875 5876 5877 5879 5880 5882 5883 5884 5885 5887 5889 5890 5890 5892 5893 5894 5895 5897 5899 5901 5903 5905 5907 5909 5911 5912 5914 5917 5919 5921 5922 5923 5924 5926 5928 5929 5931 5932 5934 5935 5936 5938 5939 5941 5942 5944 5944 5945 5946 5947 5948 5949 5950 5951 5951 5952 5953 5954 5955
5825 5826 5829 5832 5834 5835 5836 5835 5837 5841 5843 5845 5847 5850 5851 5853 5855 5856 5859 5860 5860 5862 5864 5865 5865 5866 5868 5871 5873 5874 5876 5877 5879 5880 5881 5882 5883 5886 5887 5888 5889 5889 5890 5891 5893 5893 5895 5897 5900 5902 5904 5906 5907 5909 5911 5913 5915 5916 5918 5919 5920 5922 5924 5926 5928 5929 5930 5932 5934 5935 5936 5938 5940 5941 5942 5943 5944 5945 5946 5947 5947 5948 5949 5950 5951 5951 5952
5823 5825 5828 5831 5833 5833 5833 5832 5835 5838 5839 5842 5844 5846 5847 5849 5852 5855 5856 5856 5857 5859 5861 5863 5864 5865 5867 5869 5871 5872 5874 5875 5877 5878 5879 5880 5882 5884 5885 5886 5887 5888 5888 5889 5890 5891 5892 5894 5898 5900 5901 5903 5905 5906 5908 5910 5911 5913 5915 5916 5917 5919 5921 5923 5924 5925 5927 5929 5931 5933 5934 5935 5936 5938 5939 5940 5941 5942 5943 5944 5944 5945 5946 5947 5948 5948 5949
5820 5822 5825 5828 5831 5831 5829 5829 5832 5835 5836 5839 5840 5841 5843 5846 5849 5851 5852 5854 5855 5856 5858 5860 5861 5862 5864 5867 5868 5870 5871 5873 5874 5876 5877 5878 5880 5882 5884 5884 5885 5886 5887 5888 5889 5891 5892 5894 5896 5897 5897 5899 5901 5903 5905 5907 5909 5910 5911 5912 5915 5918 5920 5920 5921 5922 5924 5926 5928 5930 5931 5932 5933 5935 5936 5937 5937 5938 5939 5940 5941 5942 5943 5944 5945 5945 5945
5817 5818 5821 5825 5826 5825 5824 5826 5830 5832 5833 5835 5836 5837 5840 5843 5845 5847 5849 5851 5852 5853 5855 5858 5858 5859 5861 5863 5865 5867 5869 5870 5872 5874 5875 5877 5878 5880 5881 5882 5883 5884 5885 5887 5888 5890 5891 5892 5893 5893 5892 5893 5896 5899 5901 5903 5906 5907 5907 5909 5912 5915 5917 5918 5919 5920 5921 5923 5924 5926 5927 5929 5930 5931 5932 5933 5934 5935 5936 5936 5937 5938 5939 5940 5941 5941 5941
5814 5815 5818 5820 5820 5820 5822 5824 5827 5829 5831 5833 5834 5835 5837 5839 5842 5844 5845 5847 5848 5849 5851 5853 5854 5856 5858 5860 5862 5864 5866 5868 5869 5871 5873 5875 5876 5877 5878 5879 5880 5881 5883 5884 5886 5887 5888 5889 5890 5890 5890 5890 5893 5896 5898 5900 5902 5903 5903 5905 5908 5910 5912 5913 5915 5917 5918 5920 5921 5922 5924 5926 5927 5927 5928 5929 5930 5931 5932 5933 5933 5934 5935 5936 5937 5937 5937
5812 5814 5815 5816 5817 5819 5819 5821 5824 5827 5828 5831 5832 5833 5834 5836 5839 5841 5841 5842 5844 5845 5846 5847 5849 5853 5855 5857 5859 5861 5862 5865 5867 5868 5870 5872 5873 5874 5874 5876 5877 5878 5880 5881 5882 5883 5884 5886 5887 5888 5889 5889 5892 5894 5894 5895 5896 5896 5898 5901 5903 5905 5908 5909 5911 5913 5915 5916 5917 5919 5921 5922 5923 5923 5924 5925 5926 5927 5928 5929 5930 5931 5931 5932 5933 5933 5933
5810 5812 5813 5814 5815 5816 5816 5819 5822 5824 5826 5829 5830 5831 5833 5835 5836 5838 5839 5840 5841 5843 5844 5846 5847 5850 5853 5854 5856 5857 5859 5862 5864 5865 5866 5868 5869 5870 5872 5873 5874 5875 5877 5879 5880 5881 5882 5883 5883 5884 5886 5887 5889 5890 5890 5891 5891 5891 5893 5897 5899 5901 5903 5905 5907 5908 5910 5912 5913 5915 5917 5918 5918 5919 5921 5922 5923 5924 5925 5926 5926 5927 5928 5928 5929 5929 5929
5808 5810 5811 5812 5812 5812 5813 5816 5819 5821 5824 5826 5827 5829 5831 5832 5834 5835 5836 5838 5839 5840 5841 5843 5844 5846 5848 5851 5854 5855 5857 5860 5861 5862 5862 5864 5865 5867 5868 5869 5871 5872 5874 5876 5877 5878 5880 5880 5881 5881 5883 5884 5885 5886 5887 5888 5888 5889 5890 5893 5895 5897 5899 5901 5902 5904 5906 5909 5909 5910 5912 5913 5914 5915 5917 5918 5920 5920 5921 5922 5923 5924 5925 5925 5925 5925 5926
5805 5807 5808 5807 5807 5808 5811 5814 5816 5819 5822 5824 5826 5827 5827 5828 5830 5832 5834 5836 5837 5837 5838 5839 5841 5843 5844 5847 5850 5852 5853 5855 5857 5857 5858 5860 5861 5863 5864 5865 5867 5869 5871 5872 5874 5875 5876 5878 5878 5879 5880 5881 5883 5883 5884 5885 5886 5887 5888 5890 5891 5893 5894 5896 5897 5899 5902 5904 5905 5906 5907 5909 5911 5912 5913 5914 5916 5917 5917 5918 5919 5920 5921 5922 5922 5923 5923
5803 5803 5804 5804 5804 5806 5809 5812 5814 5817 5820 5822 5823 5822 5821 5824 5827 5828 5830 5833 5834 5834 5835 5836 5838 5840 5841 5843 5846 5848 5849 5850 5852 5853 5854 5855 5856 5858 5859 5861 5863 5865 5867 5869 5870 5872 5873 5874 5875 5876 5877 5878 5880 5880 5881 5881 5882 5884 5886 5887 5888 5889 5890 5892 5892 5893 5895 5898 5900 5902 5903 5904 5907 5908 5908 5910 5911 5913 5914 5914 5915 5916 5917 5918 5919 5920 5920
5800 5801 5801 5801 5802 5804 5807 5810 5812 5814 5817 5817 5817 5817 5819 5821 5823 5825 5827 5829 5830 5832 5833 5833 5835 5837 5838 5839 5842 5843 5844 5846 5847 5849 5850 5851 5852 5854 5856 5857 5859 5861 5863 5864 5866 5868 5870 5870 5871 5872 5873 5874 5876 5877 5877 5878 5879 5881 5882 5884 5885 5886 5887 5888 5888 5888 5890 5893 5896 5898 5899 5900 5901 5903 5904 5906 5907 5909 5910 5911 5911 5912 5913 5914 5915 5916 5916
5797 5799 5799 5799 5800 5802 5804 5807 5810 5812 5813 5813 5814 5816 5818 5819 5820 5823 5825 5825 5827 5829 5830 5830 5831 5833 5834 5835 5837 5838 5840 5842 5843 5844 5844 5846 5848 5850 5852 5853 5854 5856 5858 5860 5862 5864 5865 5866 5867 5867 5868 5869 5871 5873 5874 5875 5876 5877 5878 5880 5882 5884 5885 5886 5885 5886 5888 5891 5892 5894 5895 5896 5897 5899 5900 5902 5903 5905 5906 5907 5908 5909 5909 5910 5911 5912 5912
5795 5796 5796 5796 5798 5800 5802 5805 5807 5808 5810 5811 5812 5814 5815 5816 5818 5821 5821 5821 5824 5826 5826 5826 5827 5829 5829 5830 5832 5834 5835 5837 5838 5838 5839 5841 5843 5845 5847 5848 5849 5851 5853 5855 5857 5859 5860 5861 5863 5863 5864 5865 5866 5868 5870 5871 5872 5874 5875 5877 5879 5880 5881 5883 5884 5885 5887 5888 5890 5891 5892 5893 5894 5896 5897 5898 5900 5901 5903 5904 5904 5905 5905 5906 5907 5908 5908
5793 5793 5794 5795 5797 5799 5800 5802 5803 5805 5806 5808 5809 5811 5812 5813 5815 5817 5817 5818 5821 5823 5823 5824 5825 5824 5823 5824 5827 5829 5831 5832 5834 5834 5835 5838 5840 5842 5844 5845 5847 5848 5849 5850 5853 5854 5855 5857 5858 5859 5861 5862 5863 5864 5865 5867 5868 5870 5872 5873 5875 5877 5878 5879 5881 5882 5883 5885 5886 5887 5889 5890 5891 5892 5893 5894 5896 5898 5899 5900 5900 5901 5902 5902 5903 5904 5905
5791 5791 5793 5794 5795 5797 5798 5800 5801 5801 5803 5804 5806 5807 5808 5810 5812 5813 5813 5814 5817 5819 5819 5819 5820 5820 5820 5820 5822 5825 5827 5828 5830 5831 5832 5834 5836 5838 5839 5841 5843 5844 5845 5846 5848 5849 5850 5852 5854 5855 5856 5858 5859 5860 5861 5863 5864 5866 5867 5869 5870 5872 5874 5875 5876 5878 5879 5880 5881 5882 5884 5886 5887 5888 5890 5891 5892 5893 5895 5896 5896 5897 5897 5898 5899 5900 5901
5789 5789 5790 5791 5793 5794 5796 5797 5798 5799 5800 5801 5802 5803 5805 5806 5808 5809 5810 5811 5813 5814 5814 5815 5816 5818 5818 5819 5819 5821 5823 5825 5826 5827 5829 5830 5831 5833 5835 5836 5838 5839 5840 5841 5842 5844 5846 5847 5849 5850 5851 5853 5854 5855 5857 5858 5860 5861 5862 5864 5866 5868 5869 5871 5871 5873 5874 5875 5876 5878 5879 5881 5883 5884 5886 5887 5888 5889 5891 5891 5892 5893 5893 5894 5895 5896 5896
5787 5787 5788 5789 5790 5791 5793 5794 5795 5796 5797 5798 5799 5800 5801 5802 5804 5805 5807 5808 5809 5809 5809 5811 5812 5814 5816 5816 5816 5817 5819 5820 5822 5823 5824 5825 5826 5828 5829 5831 5833 5834 5835 5836 5837 5839 5841 5842 5843 5845 5846 5847 5849 5850 5852 5853 5855 5857 5858 5859 5861 5863 5865 5866 5867 5868 5869 5870 5872 5874 5875 5876 5878 5880 5881 5883 5884 5885 5886 5886 5887 5888 5889 5890 5890 5891 5892
5784 5784 5785 5786 5787 5788 5789 5791 5792 5793 5794 5795 5796 5797 5798 5799 5800 5801 5803 5804 5804 5805 5805 5806 5808 5810 5811 5812 5812 5813 5814 5816 5818 5819 5820 5820 5822 5823 5824 5825 5827 5828 5829 5830 5832 5834 5835 5837 5838 5840 5841 5842 5844 5845 5847 5848 5850 5852 5854 5855 5857 5859 5861 5862 5863 5864 5865 5866 5868 5869 5870 5872 5874 5875 5876 5878 5880 5881 5881 5881 5882 5883 5884 5885 5886 5886 5888
5781 5782 5783 5784 5785 5785 5786 5787 5788 5789 5790 5791 5793 5794 5795 5796 5797 5798 5799 5800 5801 5801 5801 5801 5803 5804 5805 5806 5807 5808 5809 5811 5813 5815 5815 5816 5817 5818 5818 5819 5821 5822 5824 5825 5827 5828 5830 5831 5833 5834 5835 5837 5838 5840 5842 5843 5845 5847 5848 5850 5852 5854 5856 5857 5858 5860 5861 5862 5863 5864 5866 5868 5870 5870 5871 5872 5874 5875 5876 5876 5877 5878 5879 5880 5881 5881 5883
5780 5781 5781 5781 5782 5783 5783 5784 5785 5786 5787 5788 5789 5790 5792 5793 5794 5795 5796 5796 5797 5797 5797 5798 5799 5799 5799 5800 5802 5803 5804 5806 5807 5808 5810 5811 5813 5814 5814 5815 5816 5817 5818 5820 5822 5823 5824 5825 5826 5828 5830 5831 5833 5835 5837 5838 5840 5841 5843 5845 5846 5848 5850 5851 5853 5854 5856 5857 5858 5859 5861 5863 5864 5865 5865 5867 5869 5870 5870 5871 5872 5873 5874 5875 5875 5876 5878
5778 5779 5779 5780 5780 5780 5781 5782 5783 5783 5784 5785 5786 5787 5788 5789 5790 5791 5792 5793 5793 5793 5794 5794 5795 5795 5795 5796 5796 5797 5799 5800 5801 5802 5803 5806 5807 5808 5809 5810 5811 5812 5812 5814 5815 5816 5817 5818 5820 5821 5823 5825 5827 5829 5830 5832 5834 5835 5837 5839 5840 5842 5844 5845 5847 5849 5850 5851 5852 5853 5855 5857 5858 5859 5860 5861 5863 5864 5865 5865 5866 5867 5868 5869 5869 5870 5872
5775 5776 5777 5777 5777 5778 5778 5779 5780 5780 5781 5782 5782 5783 5784 5785 5786 5787 5788 5789 5789 5789 5790 5790 5791 5791 5791 5791 5791 5792 5793 5795 5796 5796 5797 5799 5801 5802 5803 5805 5806 5807 5808 5808 5809 5809 5811 5812 5814 5815 5817 5818 5820 5822 5823 5825 5827 5828 5830 5831 5833 5835 5837 5838 5840 5842 5844 5845 5846 5848 5849 5850 5852 5853 5854 5855 5856 5858 5859 5860 5860 5861 5861 5862 5863 5864 5865
5773 5773 5774 5774 5774 5775 5775 5775 5776 5777 5778 5778 5779 5779 5780 5781 5781 5782 5783 5784 5785 5785 5786 5786 5786 5787 5787 5787 5787 5788 5788 5789 5790 5791 5792 5793 5795 5796 5797 5798 5801 5803 5804 5804 5803 5804 5805 5806 5807 5808 5810 5812 5813 5815 5817 5818 5820 5821 5823 5824 5826 5827 5829 5831 5833 5834 5836 5838 5839 5841 5843 5844 5845 5846 5847 5848 5850 5851 5852 5852 5853 5854 5855 5856 5856 5857 5858
5770 5770 5770 5770 5771 5771 5772 5772 5773 5774 5774 5775 5775 5776 5776 5777 5777 5778 5778 5779 5780 5780 5781 5781 5782 5782 5782 5782 5782 5783 5783 5784 5785 5785 5786 5787 5788 5789 5790 5792 5795 5797 5798 5799 5798 5798 5799 5801 5801 5802 5804 5805 5806 5808 5810 5811 5813 5814 5816 5817 5819 5820 5822 5824 5825 5827 5829 5830 5832 5834 5835 5836 5838 5839 5840 5841 5843 5844 5845 5845 5846 5847 5848 5849 5849 5850 5851
5768 5768 5768 5768 5768 5768 5769 5769 5769 5770 5770 5771 5771 5771 5772 5772 5773 5773 5774 5774 5775 5775 5775 5776 5777 5777 5777 5778 5778 5778 5778 5779 5779 5779 5780 5781 5781 5782 5784 5786 5788 5789 5790 5792 5792 5791 5792 5793 5795 5797 5798 5800 5800 5801 5803 5804 5806 5807 5809 5810 5812 5813 5815 5817 5818 5820 5822 5823 5825 5826 5827 5829 5830 5831 5833 5834 5835 5836 5837 5838 5839 5839 5840 5842 5842 5842 5843
5766 5766 5766 5765 5765 5765 5765 5765 5766 5766 5766 5766 5767 5767 5767 5768 5768 5769 5769 5770 5770 5770 5770 5771 5771 5772 5772 5772 5772 5772 5772 5772 5773 5773 5774 5774 5775 5775 5777 5778 5780 5781 5783 5784 5784 5784 5784 5786 5787 5789 5792 5794 5796 5797 5797 5798 5800 5801 5803 5804 5805 5807 5808 5809 5811 5813 5814 5816 5817 5818 5820 5821 5822 5823 5825 5826 5827 5828 5829 5830 5831 5832 5833 5834 5835 5835 5835
5763 5763 5763 5763 5763 5762 5762 5762 5762 5762 5762 5762 5762 5763 5763 5763 5763 5764 5764 5765 5765 5765 5765 5765 5766 5766 5766 5766 5766 5767 5767 5767 5767 5767 5768 5768 5769 5769 5770 5771 5772 5774 5776 5777 5777 5776 5777 5778 5779 5781 5783 5785 5788 5790 5792 5793 5795 5796 5797 5798 5799 5800 5801 5802 5803 5805 5806 5807 5809 5810 5811 5813 5814 5815 5816 5817 5818 5819 5820 5821 5823 5824 5824 5826 5828 5828 5827
5761 5761 5760 5760 5760 5759 5759 5759 5759 5758 5758 5758 5758 5758 5758 5758 5758 5758 5759 5759 5759 5759 5759 5759 5760 5760 5760 5760 5760 5760 5760 5760 5760 5761 5761 5762 5763 5763 5763 5764 5765 5766 5768 5770 5771 5770 5770 5771 5772 5773 5774 5776 5778 5781 5784 5786 5788 5790 5791 5792 5793 5794 5795 5796 5797 5797 5798 5799 5800 5801 5803 5804 5805 5806 5808 5809 5810 5811 5811 5812 5814 5815 5816 5817 5818 5819 5820
5758 5758 5757 5757 5757 5756 5756 5756 5755 5755 5755 5755 5754 5754 5754 5754 5753 5753 5753 5754 5754 5754 5754 5753 5754 5754 5754 5754 5754 5754 5753 5753 5753 5753 5753 5754 5756 5756 5756 5757 5758 5760 5760 5761 5763 5764 5764 5765 5765 5766 5767 5769 5770 5772 5774 5777 5779 5781 5782 5784 5785 5786 5787 5788 5790 5790 5791 5792 5793 5793 5794 5795 5796 5798 5799 5800 5801 5802 5803 5804 5805 5806 5807 5808 5808 5810 5813
5754 5754 5754 5754 5753 5753 5752 5752 5752 5751 5751 5751 5750 5750 5750 5749 5749 5748 5748 5748 5748 5748 5748 5748 5747 5747 5747 5747 5747 5747 5747 5746 5745 5745 5746 5747 5748 5748 5749 5750 5753 5754 5753 5753 5755 5758 5758 5756 5756 5757 5760 5762 5763 5764 5765 5767 5769 5771 5772 5774 5776 5777 5779 5780 5781 5782 5783 5784 5785 5786 5786 5787 5788 5789 5790 5791 5793 5793 5794 5795 5796 5797 5798 5798 5799 5802 5805
5750 5750 5750 5750 5749 5749 5748 5748 5748 5747 5747 5747 5746 5746 5745 5745 5744 5744 5743 5742 5742 5741 5741 5741 5741 5741 5741 5741 5740 5740 5740 5739 5738 5738 5738 5739 5740 5741 5742 5743 5744 5746 5746 5747 5749 5752 5751 5748 5747 5748 5751 5753 5755 5756 5757 5759 5760 5761 5763 5765 5766 5768 5770 5771 5772 5773 5774 5775 5776 5777 5778 5779 5780 5781 5782 5783 5784 5785 5786 5787 5787 5789 5790 5790 5790 5794 5797
5746 5746 5745 5745 5745 5744 5744 5743 5743 5743 5742 5742 5741 5741 5740 5740 5739 5739 5738 5737 5736 5735 5735 5734 5734 5734 5734 5733 5733 5732 5732 5732 5731 5730 5730 5732 5733 5734 5735 5735 5735 5736 5737 5738 5740 5742 5741 5739 5739 5742 5743 5744 5745 5747 5748 5750 5751 5751 5753 5755 5756 5758 5760 5762 5763 5764 5765 5766 5767 5769 5769 5770 5771 5772 5772 5774 5775 5776 5777 5778 5778 5780 5781 5781 5782 5786 5788
5742 5741 5741 5740 5740 5739 5739 5738 5738 5738 5737 5737 5736 5736 5735 5734 5734 5733 5732 5732 5730 5729 5728 5728 5727 5727 5726 5726 5725 5725 5724 5723 5723 5722 5723 5725 5726 5726 5726 5726 5727 5728 5728 5728 5729 5730 5730 5732 5735 5737 5735 5734 5735 5736 5737 5739 5741 5742 5744 5745 5746 5748 5751 5753 5754 5755 5756 5757 5758 5759 5760 5761 5762 5762 5763 5765 5766 5766 5768 5769 5769 5770 5771 5772 5773 5775 5778
5738 5737 5736 5735 5734 5734 5733 5733 5733 5732 5732 5731 5731 5730 5730 5729 5728 5727 5726 5725 5724 5723 5722 5721 5720 5719 5719 5718 5718 5717 5716 5715 5714 5714 5714 5715 5716 5717 5717 5717 5718 5719 5719 5719 5719 5719 5720 5724 5729 5730 5726 5725 5727 5727 5727 5728 5732 5734 5735 5735 5736 5739 5741 5743 5745 5747 5748 5748 5749 5750 5751 5752 5753 5754 5755 5756 5757 5757 5759 5759 5760 5760 5761 5762 5763 5765 5767
5733 5732 5731 5730 5729 5728 5728 5727 5727 5727 5726 5726 5725 5725 5724 5723 5722 5720 5719 5718 5717 5716 5715 5714 5713 5712 5711 5710 5709 5709 5708 5706 5706 5705 5705 5705 5706 5706 5707 5708 5710 5710 5709 5709 5710 5711 5711 5714 5718 5718 5717 5719 5721 5719 5718 5720 5724 5726 5725 5724 5726 5729 5731 5733 5735 5737 5738 5739 5741 5741 5742 5743 5745 5746 5747 5748 5748 5749 5750 5751 5751 5752 5752 5753 5754 5755 5757
5729 5727 5726 5725 5723 5723 5722 5722 5722 5721 5721 5720 5720 5719 5717 5716 5715 5713 5712 5711 5710 5708 5707 5706 5705 5704 5703 5702 5701 5700 5699 5698 5697 5697 5696 5696 5696 5697 5697 5698 5699 5700 5699 5700 5701 5702 5703 5704 5706 5706 5706 5708 5710 5709 5710 5713 5716 5716 5715 5715 5717 5719 5721 5722 5725 5728 5729 5730 5732 5733 5733 5734 5735 5736 5737 5739 5740 5741 5742 5742 5743 5744 5744 5745 5746 5747 5747
5724 5723 5721 5719 5718 5717 5717 5716 5716 5716 5715 5715 5713 5712 5711 5709 5708 5707 5705 5704 5702 5701 5700 5698 5697 5696 5695 5694 5693 5693 5692 5691 5690 5689 5688 5687 5687 5687 5688 5689 5689 5689 5690 5692 5693 5692 5693 5695 5696 5695 5695 5697 5698 5698 5701 5705 5706 5705 5705 5706 5707 5709 5711 5713 5715 5717 5719 5720 5722 5724 5724 5724 5725 5726 5728 5729 5730 5732 5733 5733 5734 5735 5735 5736 5737 5738 5738
5719 5717 5715 5714 5713 5712 5711 5711 5711 5710 5709 5708 5707 5706 5704 5703 5702 5700 5699 5697 5695 5694 5693 5692 5690 5689 5688 5687 5686 5685 5684 5683 5683 5682 5681 5681 5680 5679 5679 5679 5679 5679 5681 5684 5684 5683 5684 5686 5686 5685 5686 5688 5688 5689 5692 5695 5695 5695 5696 5697 5698 5699 5701 5703 5705 5707 5709 5711 5712 5714 5714 5714 5715 5717 5719 5720 5721 5722 5723 5724 5725 5726 5726 5727 5728 5728 5729
5714 5712 5710 5709 5708 5707 5706 5706 5705 5705 5704 5703 5701 5700 5698 5697 5695 5694 5692 5691 5689 5688 5687 5685 5684 5683 5682 5680 5679 5678 5677 5676 5675 5674 5674 5674 5674 5673 5673 5672 5671 5670 5672 5674 5674 5674 5675 5677 5676 5676 5677 5679 5680 5681 5683 5685 5684 5684 5687 5689 5690 5690 5692 5694 5695 5697 5699 5701 5702 5703 5704 5705 5706 5708 5710 5711 5711 5712 5714 5714 5715 5716 5717 5718 5718 5719 5720
5710 5708 5706 5704 5703 5702 5702 5701 5700 5699 5698 5697 5696 5694 5693 5691 5689 5688 5686 5685 5684 5682 5681 5680 5678 5677 5675 5674 5672 5671 5670 5669 5668 5668 5668 5667 5667 5666 5666 5665 5664 5664 5664 5664 5663 5664 5666 5667 5666 5667 5669 5672 5673 5673 5673 5675 5675 5676 5678 5680 5681 5682 5683 5685 5687 5688 5690 5691 5692 5693 5694 5696 5697 5698 5700 5701 5702 5703 5704 5705 5706 5707 5708 5709 5710 5710 5711
5706 5703 5702 5700 5699 5698 5697 5696 5695 5694 5693 5692 5690 5689 5687 5685 5683 5682 5681 5680 5679 5677 5676 5675 5673 5671 5669 5667 5666 5664 5664 5663 5662 5661 5661 5660 5660 5659 5659 5659 5658 5657 5655 5653 5653 5653 5654 5655 5657 5659 5662 5664 5665 5664 5665 5667 5668 5669 5670 5672 5672 5673 5675 5677 5679 5680 5681 5682 5683 5684 5685 5687 5688 5689 5690 5691 5692 5693 5695 5696 5697 5698 5699 5700 5701 5701 5702
5701 5699 5697 5696 5695 5694 5693 5692 5691 5689 5688 5686 5685 5683 5681 5679 5678 5677 5676 5675 5674 5672 5671 5669 5667 5665 5663 5661 5659 5658 5657 5657 5656 5655 5654 5653 5652 5651 5650 5651 5651 5649 5645 5643 5643 5643 5643 5645 5648 5651 5654 5655 5656 5657 5658 5660 5661 5662 5663 5665 5665 5666 5667 5669 5671 5672 5672 5673 5675 5676 5677 5678 5679 5679 5681 5682 5682 5683 5685 5686 5687 5688 5689 5690 5691 5692 5693
5697 5695 5693 5692 5691 5690 5688 5687 5686 5684 5683 5681 5679 5678 5676 5674 5673 5672 5671 5670 5669 5667 5666 5664 5662 5660 5657 5655 5653 5652 5652 5651 5650 5649 5648 5646 5644 5642 5640 5641 5641 5639 5636 5634 5634 5634 5635 5637 5639 5641 5645 5648 5649 5650 5651 5653 5654 5655 5656 5657 5659 5660 5660 5661 5662 5664 5664 5665 5666 5667 5669 5670 5670 5671 5672 5673 5674 5675 5676 5677 5678 5679 5679 5680 5681 5682 5682
5693 5691 5689 5687 5686 5685 5684 5682 5681 5679 5678 5676 5674 5672 5670 5669 5668 5667 5666 5665 5664 5662 5661 5659 5657 5655 5652 5650 5648 5648 5647 5645 5644 5643 5641 5638 5635 5633 5632 5632 5632 5631 5628 5627 5627 5627 5627 5629 5630 5632 5636 5640 5642 5643 5644 5645 5647 5648 5649 5650 5652 5654 5654 5654 5655 5656 5657 5657 5658 5660 5661 5662 5662 5663 5664 5665 5666 5667 5667 5668 5669 5669 5670 5670 5672 5672 5672
5688 5686 5684 5683 5682 5680 5679 5678 5676 5675 5673 5671 5669 5667 5665 5664 5663 5662 5661 5660 5659 5658 5656 5655 5652 5650 5647 5646 5644 5643 5642 5641 5639 5638 5637 5634 5631 5629 5627 5625 5625 5624 5623 5622 5620 5619 5619 5620 5621 5623 5627 5631 5634 5636 5637 5639 5641 5643 5644 5644 5646 5647 5647 5648 5649 5650 5649 5650 5651 5653 5653 5654 5654 5655 5656 5658 5658 5659 5659 5660 5661 5661 5661 5661 5662 5663 5663
5683 5682 5680 5679 5677 5676 5675 5673 5672 5670 5668 5666 5664 5662 5661 5660 5659 5658 5657 5656 5654 5653 5652 5650 5648 5645 5643 5642 5640 5639 5638 5636 5635 5634 5632 5631 5629 5627 5624 5622 5621 5620 5618 5617 5616 5615 5614 5614 5615 5617 5620 5624 5627 5630 5632 5634 5636 5637 5638 5638 5639 5640 5641 5641 5642 5643 5643 5644 5645 5646 5646 5647 5648 5648 5649 5650 5651 5651 5652 5653 5653 5653 5653 5653 5653 5654 5654
5679 5677 5676 5675 5673 5672 5671 5669 5667 5665 5663 5661 5659 5658 5656 5655 5654 5653 5652 5651 5650 5648 5646 5645 5643 5641 5639 5637 5636 5635 5634 5632 5631 5630 5628 5626 5625 5623 5621 5620 5618 5617 5616 5614 5613 5612 5612 5611 5612 5614 5616 5618 5621 5624 5626 5628 5629 5630 5631 5632 5633 5634 5635 5635 5636 5637 5637 5638 5639 5639 5640 5640 5641 5641 5642 5643 5643 5644 5644 5645 5645 5645 5645 5645 5645 5645 5645
5675 5673 5672 5671 5669 5668 5666 5665 5663 5661 5659 5657 5655 5653 5652 5651 5650 5649 5648 5647 5645 5644 5642 5640 5639 5637 5635 5633 5632 5631 5630 5628 5627 5626 5624 5623 5621 5620 5618 5617 5616 5615 5614 5612 5611 5611 5610 5610 5610 5611 5613 5614 5616 5618 5620 5621 5622 5623 5625 5626 5627 5628 5629 5630 5631 5631 5632 5632 5632 5633 5634 5634 5634 5635 5636 5636 5636 5636 5637 5637 5637 5637 5637 5637 5637 5637 5637
5671 5670 5668 5667 5665 5664 5662 5661 5659 5657 5655 5652 5650 5649 5648 5647 5646 5645 5644 5642 5641 5639 5638 5636 5634 5633 5631 5629 5628 5627 5626 5625 5623 5622 5621 5620 5618 5616 5615 5613 5612 5612 5611 5610 5610 5609 5608 5608 5609 5609 5611 5612 5613 5614 5615 5616 5617 5619 5620 5621 5622 5623 5624 5625 5625 5625 5626 5626 5626 5627 5628 5629 5629 5629 5629 5629 5629 5629 5629 5629 5630 5630 5630 5630 5630 5630 5629